This is the latest recevied weather packets stored in our database for station/object K42C. If no packets are shown the sender has not sent any weather packets the latest 10 day(s).
| Time | Temp. | Humidity | Pressure | Rain* | Wind** | Luminosity | Snow |
|---|---|---|---|---|---|---|---|
| 1777843413 | 13.33° C | 69% | 970.4 hPa | 0 mm | 3.58 m/s, 179° | - | - |
| 1777843016 | 12.78° C | 69% | 970.4 hPa | 0 mm | 4.47 m/s, 238° | - | - |
| 1777842218 | 12.78° C | 71% | 970.7 hPa | 0 mm | 5.36 m/s, 263° | - | - |
| 1777841817 | 12.22° C | 73% | 970.8 hPa | 0 mm | 5.36 m/s, 229° | - | - |
| 1777841419 | 11.67° C | 74% | 971 hPa | 0 mm | 4.02 m/s, 203° | - | - |
| 1777841019 | 11.67° C | 75% | 971.2 hPa | 0 mm | 4.92 m/s, 180° | - | - |
| 1777840621 | 11.67° C | 75% | 971.2 hPa | 0 mm | 5.36 m/s, 177° | - | - |
| 1777840220 | 11.67° C | 76% | 971.4 hPa | 0 mm | 4.02 m/s, 233° | - | - |
| 1777839823 | 11.67° C | 76% | 971.5 hPa | 0 mm | 3.58 m/s, 222° | - | - |
| 1777839422 | 11.11° C | 75% | 971.4 hPa | 0 mm | 6.26 m/s, 181° | - | - |
| 1777839025 | 11.11° C | 75% | 971.6 hPa | 0 mm | 2.24 m/s, 207° | - | - |
| 1777838624 | 11.67° C | 74% | 971.5 hPa | 0 mm | 4.47 m/s, 240° | - | - |
| 1777838227 | 11.67° C | 72% | 971.5 hPa | 0 mm | 4.02 m/s, 197° | - | - |
| 1777837826 | 12.22° C | 70% | 971.5 hPa | 0 mm | 4.92 m/s, 207° | - | - |
| 1777837429 | 12.22° C | 69% | 971.4 hPa | 0 mm | 4.47 m/s, 201° | - | - |
| 1777837028 | 12.78° C | 69% | 971.4 hPa | 0 mm | 3.13 m/s, 193° | - | - |
| 1777836630 | 12.78° C | 68% | 971.3 hPa | 0 mm | 2.24 m/s, 226° | - | - |
| 1777836230 | 13.33° C | 66% | 971.3 hPa | 0 mm | 3.58 m/s, 214° | - | - |
| 1777835832 | 13.89° C | 65% | 971.3 hPa | 0 mm | 2.68 m/s, 184° | - | - |
| 1777835431 | 14.44° C | 63% | 971.1 hPa | 0 mm | 4.47 m/s, 188° | - | - |
| 1777835034 | 14.44° C | 62% | 971.3 hPa | 0 mm | 5.36 m/s, 239° | - | - |
| 1777834633 | 15° C | 60% | 971.2 hPa | 0 mm | 4.47 m/s, 204° | - | - |
| 1777834236 | 15° C | 60% | 971.2 hPa | 0 mm | 5.81 m/s, 221° | - | - |
| 1777833835 | 15° C | 60% | 971 hPa | 0 mm | 2.68 m/s, 219° | - | - |
| 1777833438 | 15° C | 60% | 971.1 hPa | 0 mm | 4.02 m/s, 207° | - | - |
* Rain latest hour (hover to see other rain measurements)
** Current wind speed in m/s (hover to see current wind gust speed)